Location: Unspecified
(56.5167°N, 0.0000°E)
Time: 11:28:52
(UTC+02:00)

Resurs 1-4 Rocket - Pass Details

Date: 10 August 2020
Orbit: 799 x 815 km, 98.6° (Epoch: 23 September)

Event Time Altitude Azimuth Distance (km) Brightness Sun altitude
Rises 03:53:57 0° 16° (NNE) 3,338 7.1 -14.5°
Reaches altitude 10° 03:56:18 10° 18° (NNE) 2,401 5.9 -14.4°
Maximum altitude 04:01:37 82° 106° (ESE) 820 2.1 -14.0°
Enters shadow 04:05:30 19° 193° (SSW) 1,834 3.4 -13.8°
